Location: Adamstown South Public School
(32.9318°S, 151.7012°E)
Time: 16:14:22
(UTC+00:00)

Cosmos 44 - Pass Details

Date: 07 June 2020
Orbit: 589 x 773 km, 65.1° (Epoch: 04 July)

Event Time Altitude Azimuth Distance (km) Brightness Sun altitude
Rises 07:39:53 0° 351° (N) 3,201 7.2 -9.7°
Reaches altitude 10° 07:42:21 10° 357° (N) 2,298 6.3 -10.2°
Maximum altitude 07:47:21 43° 68° (ENE) 1,077 4.0 -11.2°
Enters shadow 07:51:49 13° 135° (SE) 2,114 5.2 -12.1°
